Location: Lombard
(41.8800°N, 88.0080°W)
Time: 05:46:06
(UTC-05:00)

A-11 Canister half - Pass Details

Date: 30 April 2025
Orbit: 1514 x 1685 km, 47.2° (Epoch: 13 May)

Event Time Altitude Azimuth Distance (km) Brightness Sun altitude
Exits shadow 04:27:20 11° 202° (SSW) 3,634 10.5 -14.2°
Maximum altitude 04:35:36 41° 136° (SE) 2,066 9.8 -13.0°
Drops below altitude 10° 04:44:01 10° 70° (ENE) 3,688 12.4 -11.7°
Sets 04:47:17 0° 64° (ENE) 4,685 13.7 -11.1°
